AO-07 1 07530U 74089B 24354.53394037 -.00000039 00000-0 47121-4 0 9997 2 07530 101.9901 350.9954 0012397 90.4936 31.3127 12.53683919292261 UO-11 1 14781U 84021B 24354.48883907 .00002528 00000-0 27922-3 0 9993 2 14781 97.7319 318.6477 0007739 173.0966 187.0359 14.88278816176036 AO-27 1 22825U 93061C 24354.74151032 .00000255 00000-0 11496-3 0 9995 2 22825 98.7641 49.2287 0007395 254.0907 105.9461 14.30683999629419 FO-29 1 24278U 96046B 24354.48217055 .00000053 00000-0 86968-4 0 9997 2 24278 98.5886 264.8849 0350867 68.4164 295.3978 13.53226183399499 NOAA-15 1 25338U 98030A 24354.80359851 .00000309 00000-0 14513-3 0 9997 2 25338 98.5526 17.9315 0010988 137.8874 222.3153 14.26829391383904 GO-32 1 25397U 98043D 24354.50725095 .00000219 00000-0 11508-3 0 9991 2 25397 98.9489 324.2569 0001483 28.8647 331.2613 14.24214067373796 ISS 1 25544U 98067A 24354.78715486 .00013667 00000-0 24028-3 0 9996 2 25544 51.6389 115.8117 0007806 357.7173 156.9527 15.50767798487337 NO-44 1 26931U 01043C 24354.58020970 .00000322 00000-0 15208-3 0 9994 2 26931 67.0494 212.4894 0006623 260.4206 99.6147 14.31544635212489 SO-50 1 27607U 02058C 24354.31299141 .00002658 00000-0 36079-3 0 9994 2 27607 64.5553 11.8728 0035605 20.9366 339.3187 14.80531676183719 CO-55 1 27844U 03031E 24353.95405148 .00000826 00000-0 38095-3 0 9999 2 27844 98.6778 358.4746 0009199 334.7400 25.3328 14.23708249114074 CO-57 1 27848U 03031J 24353.96464290 .00000688 00000-0 32430-3 0 9990 2 27848 98.6805 358.6156 0009403 351.9616 8.1410 14.23085206113817 RS-22 1 27939U 03042A 24354.83555045 .00002367 00000-0 39046-3 0 9995 2 27939 98.3081 154.4232 0011455 188.6303 307.9569 14.71401953135561 NOAA-18 1 28654U 05018A 24354.75912719 .00000368 00000-0 21925-3 0 9997 2 28654 98.8602 70.0695 0013326 255.7751 104.1941 14.13456806 9472 CO-58 1 28895U 05043F 24354.35579854 .00003660 00000-0 62222-3 0 9990 2 28895 98.2242 130.9888 0015846 130.5513 229.7075 14.69666105 21638 CO-65 1 32785U 08021C 24354.49382219 .00008201 00000-0 64584-3 0 9993 2 32785 97.7713 319.0357 0012960 87.3885 272.8822 15.00995355903236 AAUSAT2 1 32788U 08021F 24354.71599835 .00054079 00000-0 14557-2 0 9993 2 32788 97.6061 337.9631 0001682 126.6473 233.4926 15.37675053906711 CO-66 1 32791U 08021J 24354.35674338 .00017339 00000-0 10262-2 0 9996 2 32791 97.7118 325.6549 0006850 52.1415 308.0433 15.11481535904411 RS-30 1 32953U 08025A 24354.81998081 .00000033 00000-0 16589-3 0 9997 2 32953 82.5035 334.0214 0020598 61.4137 298.9012 12.43155378752194 PRISM 1 33493U 09002B 24354.17262762 .00076068 00000-0 18173-2 0 9993 2 33493 98.1751 60.0799 0007535 324.0183 36.0553 15.41201416867296 NOAA-19 1 33591U 09005A 24354.80873924 .00000335 00000-0 20297-3 0 9998 2 33591 99.0236 52.3640 0014585 127.0495 233.2013 14.13233218817843 SRMSAT 1 37841U 11058D 24354.74358578 .00000578 00000-0 17101-3 0 9996 2 37841 19.9710 114.3116 0011788 335.6280 174.5933 14.11313434681025 RS-40 1 38735U 12041C 24354.52236191 .00000047 00000-0 26585-3 0 9991 2 38735 82.4767 54.3174 0017887 172.0826 188.0539 12.42622306562198 ZACUBE-1 1 39417U 13066B 24354.32860661 .00008011 00000-0 75225-3 0 9994 2 39417 97.7592 306.8871 0045029 267.1427 92.4638 14.93445237599172 Delfi-N3xt 1 39428U 13066N 24354.76172189 .00008352 00000-0 93957-3 0 9995 2 39428 97.8374 268.8480 0090259 203.8746 155.8270 14.83979913593736 GOMX-1 1 39430U 13066Q 24354.81195663 .00003432 00000-0 55092-3 0 9998 2 39430 97.7032 217.9113 0136421 22.1165 338.5848 14.66194349590221 LO-74 1 39440U 13066AA 24354.80818392 .00007422 00000-0 80061-3 0 9996 2 39440 97.8332 295.0909 0066846 27.3049 333.1655 14.87034606597087 AO-73 1 39444U 13066AE 24354.86198358 .00008797 00000-0 74247-3 0 9994 2 39444 97.7447 311.1785 0041260 241.5612 118.1450 14.97704336598437 DTUSAT-2 1 40030U 14033W 24354.36407735 .00010408 00000-0 76112-3 0 9994 2 40030 98.0359 312.6557 0008278 288.0256 72.0066 15.03791916570474 EO-80 1 40032U 14033Y 24354.32696465 .00010772 00000-0 78635-3 0 9998 2 40032 98.0230 312.5036 0007582 213.7842 146.2900 15.03848513570442 XW-2C 1 40906U 15049H 24354.79723078 .00129422 00000-0 96036-3 0 9996 2 40906 97.4534 19.4111 0003914 17.6540 342.4859 15.72472373513296 LILACSAT-2 1 40908U 15049K 24354.82261843 .00012914 00000-0 40847-3 0 9995 2 40908 97.5186 5.6492 0012673 59.4697 300.7794 15.32839083511867 IO-86 1 40931U 15052B 24337.09180034 .00002217 00000-0 20975-3 0 9992 2 40931 5.9986 232.5457 0013173 302.5393 57.3463 14.78392648496340 ChubuSat-2 1 41338U 16012B 24354.48056707 .00008811 00000-0 48865-3 0 9996 2 41338 31.0002 274.7814 0011036 300.2738 59.6808 15.12401516485632 ChubuSat-3 1 41339U 16012C 24354.85066077 .00006859 00000-0 39055-3 0 9990 2 41339 31.0068 272.4060 0011059 305.9065 54.0547 15.11358462485654 Horyu-4 1 41340U 16012D 24353.97955048 .00023820 00000-0 89174-3 0 9993 2 41340 30.9991 203.4150 0008534 56.6784 303.4674 15.26077051486308 Lapan A3 1 41603U 16040E 24354.82776675 .00004581 00000-0 17114-3 0 9996 2 41603 97.1388 0.4092 0012188 152.9887 207.1990 15.27773734471542 Pratham 1 41783U 16059A 24354.52728208 .00001441 00000-0 27064-3 0 9998 2 41783 97.8288 5.1941 0032666 149.9514 210.3573 14.65787111439685 CAS-2T 1 41847U 16066G 24354.79793960 .00001814 00000-0 27012-3 0 9990 2 41847 98.4415 64.6906 0348929 337.9662 20.6831 14.42563323426240 CAS-4B 1 42759U 17034B 24354.81146582 .00032801 00000-0 75590-3 0 9998 2 42759 43.0124 248.1577 0014775 182.4268 177.6519 15.41885401415915 CAS-4A 1 42761U 17034D 24354.79079657 .00032930 00000-0 75106-3 0 9992 2 42761 43.0161 246.3964 0015841 189.6161 170.4395 15.42175854415924 D-SAT 1 42794U 17036AF 24354.20655312 .00010533 00000-0 65145-3 0 9991 2 42794 97.4982 330.0185 0098778 237.8531 121.3084 15.05963510408517 TechnoSat 1 42829U 17042E 24354.55448390 .00005682 00000-0 46649-3 0 9998 2 42829 97.3852 165.6828 0013137 162.2876 197.8808 14.99498603404927 AO-91 1 43017U 17073E 24354.36933723 .00014118 00000-0 77951-3 0 9994 2 43017 97.5467 223.7427 0192145 31.6823 329.5796 14.99568227383353 S-Net D 1 43186U 18014G 24354.24760362 .00008000 00000-0 51453-3 0 9993 2 43186 97.5765 253.1289 0011832 93.2300 267.0282 15.08606945376361 S-Net B 1 43187U 18014H 24354.31743755 .00008101 00000-0 52101-3 0 9992 2 43187 97.5772 253.1603 0012607 89.2618 271.0055 15.08593932376373 S-Net A 1 43188U 18014J 24354.51381169 .00007772 00000-0 49979-3 0 9994 2 43188 97.5776 253.4837 0012509 89.2637 271.0025 15.08613763376408 S-Net C 1 43189U 18014K 24354.71746779 .00007147 00000-0 45997-3 0 9991 2 43189 97.5794 253.6686 0014159 82.5671 277.7166 15.08596082374984 Ten-Koh 1 43677U 18084G 24354.39572573 .00005635 00000-0 47302-3 0 9995 2 43677 98.0796 153.9829 0015005 121.1405 239.1291 14.98680487334439 PO-101 1 43678U 18084H 24354.81267472 .00003521 00000-0 31211-3 0 9996 2 43678 98.0874 158.6996 0009968 130.7166 229.4922 14.96883631334678 QO-100 1 43700U 18090A 24354.81758734 .00000152 00000-0 00000+0 0 9990 2 43700 0.0159 34.2400 0002629 273.9465 100.8361 1.00273690 22460 MinXSS-2 1 43758U 18099A 24354.44642513 .00019261 00000-0 96234-3 0 9997 2 43758 97.5293 54.7091 0014665 43.0723 317.1655 15.17414384330799 AO-95 1 43770U 18099N 24354.10391588 .00014227 00000-0 83175-3 0 9994 2 43770 97.5199 48.4680 0013326 90.0514 270.2243 15.11908275330440 RANGE-B 1 43772U 18099Q 24354.41610086 .00023326 00000-0 10861-2 0 9998 2 43772 97.4991 53.3480 0004038 357.0621 3.0589 15.19913933330753 RANGE-A 1 43773U 18099R 24354.58225783 .00005986 00000-0 41220-3 0 9999 2 43773 97.4757 42.0384 0013528 65.3433 294.9202 15.06153397330306 MOVE-II 1 43780U 18099Y 24354.72134999 .00043786 00000-0 13305-2 0 9993 2 43780 97.4942 57.7997 0004938 52.9623 307.2071 15.33916158331171 SNUSat 2 1 43782U 18099AA 24354.40281794 .00010566 00000-0 64987-3 0 9999 2 43782 97.4883 46.8050 0013955 34.3284 325.8844 15.10132150330475 SnugLite 1 43784U 18099AC 24354.10218465 .00014422 00000-0 83848-3 0 9995 2 43784 97.4696 45.8326 0004716 48.4336 311.7298 15.12171620330523 ITASat 1 1 43786U 18099AE 24354.58221594 .00008930 00000-0 56601-3 0 9990 2 43786 97.4842 46.9220 0016875 80.0359 280.2774 15.09043769330481 EAGLET 1 1 43790U 18099AJ 24354.40786908 .00006769 00000-0 46280-3 0 9991 2 43790 97.5043 47.1337 0014351 63.2812 296.9883 15.06368703330127 ESEO 1 43792U 18099AL 24354.59611861 .00002827 00000-0 22347-3 0 9997 2 43792 97.4814 42.7111 0009221 33.6267 326.5541 15.01396218330005 CSIM 1 43793U 18099AM 24354.56880414 .00045228 00000-0 13933-2 0 9999 2 43793 97.5098 59.5122 0008437 24.7864 335.3782 15.33449605330998 JO-97 1 43803U 18099AX 24354.12275996 .00016097 00000-0 87842-3 0 9999 2 43803 97.4946 49.2531 0009066 33.4147 326.7655 15.14395304330618 Suomi 100 1 43804U 18099AY 24354.10909658 .00014511 00000-0 82577-3 0 9996 2 43804 97.5011 48.9043 0014459 31.3714 328.8377 15.12864226330577 ISAT 1 43879U 18111D 24354.59283790 .00019192 00000-0 89354-3 0 9998 2 43879 97.6063 260.3568 0013650 78.7237 281.5531 15.19884655327484 UWE-4 1 43880U 18111E 24354.49158892 .00017852 00000-0 88333-3 0 9990 2 43880 97.5997 259.6849 0016665 88.1929 272.1212 15.17743247327454 Sparrow 1 43881U 18111F 24354.48900287 .00020786 00000-0 94652-3 0 9994 2 43881 97.6181 262.5711 0010643 109.6374 250.6010 15.20664990327543 Prox-1 1 44339U 19036A 24354.56184721 .00015274 00000-0 22402-2 0 9995 2 44339 23.9983 106.7748 0006658 279.7761 80.1983 14.73887626292550 SONATE 1 44400U 19038Q 24354.50264630 .00047026 00000-0 80629-3 0 9994 2 44400 97.7125 358.9532 0012555 148.2550 211.9460 15.50976066302624 Taurus 1 1 44530U 19059C 24354.74184815 .00009525 00000-0 19396-2 0 9997 2 44530 98.5898 120.7697 0010801 204.6930 155.3753 14.61206507278807 Duchifat 3 1 44854U 19089C 24354.34783324 .00034389 00000-0 11890-2 0 9992 2 44854 36.9513 355.4621 0012372 212.9443 147.0537 15.28958871276499 TO-108 1 44881U 19093C 24354.70164332 .00001937 00000-0 23373-3 0 9992 2 44881 97.8122 67.8717 0015372 77.0372 283.2559 14.84852673270568 FloripaSat 1 1 44885U 19093G 24354.81369464 .00007314 00000-0 67562-3 0 9994 2 44885 97.8291 76.4255 0012086 62.2835 297.9609 14.94846751271055 RS-44 1 44909U 19096E 24354.47860168 .00000014 00000-0 14267-4 0 9998 2 44909 82.5216 341.6469 0217095 338.2888 20.9114 12.79737070232679 UPMSat 2 1 46276U 20061E 24354.58998980 .00034330 00000-0 67335-3 0 9998 2 46276 97.2719 59.9399 0001525 138.5555 221.5811 15.47276217238703 AmicalSat 1 46287U 20061R 24354.75011465 .00341678 00000-0 15897-2 0 9994 2 46287 97.3134 65.8251 0003247 270.1955 89.8942 15.82474109238349 SALSAT 1 46495U 20068K 24354.48199349 .00010782 00000-0 52766-3 0 9996 2 46495 97.8414 319.3463 0014297 43.9012 316.3354 15.18293803232376 CubeSX-Sirius-HSE 1 47951U 21022V 24354.81604128 .00051392 00000-0 11363-2 0 9997 2 47951 97.4395 254.4792 0008417 175.6854 184.4468 15.43630697207013 CubeSX-HSE 1 47952U 21022W 24354.80900174 .00049246 00000-0 10771-2 0 9994 2 47952 97.4390 254.6234 0008528 174.1265 186.0085 15.43962463207028 KSU-Cubesat 1 47954U 21022Y 24354.68447920 .00081016 00000-0 12447-2 0 9990 2 47954 97.4398 257.3280 0007544 152.6066 207.5586 15.53954759206907 GRBAlpha 1 47959U 21022AD 24354.83222826 .00048328 00000-0 10583-2 0 9996 2 47959 97.4391 254.8147 0008417 174.1151 186.0198 15.43932284205854 Orbicraft-Zorkiy 1 47960U 21022AE 24354.80768084 .00067504 00000-0 11940-2 0 9991 2 47960 97.4419 257.1385 0007406 160.8553 199.2978 15.50061032206666 TUBIN 1 48900U 21059X 24354.77031392 .00031696 00000-0 72213-3 0 9991 2 48900 97.6625 146.6527 0005400 145.5690 214.5907 15.42867511193403 LEDSAT 1 49069U 21073D 24354.19446480 .00039015 00000-0 10170-2 0 9994 2 49069 97.4149 65.4509 0014110 348.4328 11.6591 15.38646922184756 CUTE 1 49263U 21088D 24354.75191016 .00038678 00000-0 11306-2 0 9996 2 49263 97.4740 61.0452 0011351 143.8932 216.3080 15.35119552177941 TeikyoSat 4 1 49396U 21102B 24354.51424129 .00003381 00000-0 23402-3 0 9992 2 49396 97.4362 33.0538 0013134 11.2733 348.8786 15.06263037170639 Z-Sat 1 49399U 21102E 24354.82328179 .00005624 00000-0 33181-3 0 9994 2 49399 97.4062 35.5217 0018536 343.5974 16.4655 15.11790572171009 KOSEN 1 1 49402U 21102H 24354.67582155 .00009467 00000-0 49045-3 0 9993 2 49402 97.3980 37.6527 0016199 323.4252 36.5874 15.16291035171201 HO-113 1 50466U 21131B 24354.79087109 .00001248 00000-0 40722-3 0 9991 2 50466 98.5203 79.0007 0003159 296.4936 63.5928 14.40360465156716 IRIS-A 1 51044U 22002BN 24354.58669181 .00050340 00000-0 92481-3 0 9991 2 51044 97.3584 62.1450 0004816 90.7919 269.3883 15.49070966162931 Foresail-1 1 52766U 22057AL 24354.61293207 .00048557 00000-0 88762-3 0 9993 2 52766 97.5973 126.7524 0007026 190.0527 170.0584 15.49208992142971 SNUGLITE 2 1 52899U 22065F 24354.31976294 .00002526 00000-0 51019-3 0 9991 2 52899 98.1429 132.3570 0006594 296.8237 63.2290 14.62250757131309 IO-117 1 53106U 22080B 24353.24910383 -.00000003 00000-0 00000+0 0 9997 2 53106 70.1357 128.5751 0008289 65.4193 294.7329 6.42557685 57099 FO-118 1 54684U 22167C 24354.84720747 .00112587 00000-0 14452-2 0 9994 2 54684 97.6140 147.4204 0006540 218.8647 141.2138 15.58722593112897 SSS-2B 1 56184U 23054G 24354.76274339 .01522289 17027-2 15659-2 0 9993 2 56184 97.3266 258.9419 0007013 120.4929 239.7048 16.11109908 95042 SO-120 1 56992U 23084BU 24354.58998034 .00147133 00000-0 16768-2 0 9991 2 56992 97.5360 119.5655 0003114 58.5485 301.6076 15.61754743 84726 MRC-100 1 56993U 23084BV 24354.79258107 .00478971 00000-0 20897-2 0 9990 2 56993 97.5297 121.9399 0005026 318.7283 41.3606 15.83508439 84909 UmKA 1 (RS40S) 1 57172U 23091G 24354.80658459 .00007646 00000-0 44968-3 0 9997 2 57172 97.5863 45.2290 0014891 201.3416 158.7194 15.11855141 81493 CubeBel-2 (EU11S) 1 57175U 23091K 24354.85617531 .00010885 00000-0 60038-3 0 9996 2 57175 97.5859 45.6122 0012883 212.3067 147.7376 15.14074572 81520 VERONIKA 1 58261U 23174F 24354.80487106 .00041180 00000-0 11242-2 0 9997 2 58261 97.4392 69.5054 0008342 305.7338 54.3129 15.37273225 62057 KAFASAT 1 58317U 23174BP 24354.57532654 .00082210 00000-0 15546-2 0 9992 2 58317 97.4317 71.3383 0007434 274.7506 85.2895 15.48086689 62179 ENSO 1 58470U 23185J 24354.81834994 .00030608 00000-0 85942-3 0 9995 2 58470 97.4011 60.8584 0009286 345.1269 14.9700 15.36451966 58509 EIRSAT-1 1 58472U 23185L 24354.82733729 .00038032 00000-0 98167-3 0 9994 2 58472 97.4004 61.2666 0008593 343.8052 16.2917 15.39019174 58536 SONATE-2 1 59112U 24043Q 24354.33750063 .00019466 00000-0 73439-3 0 9991 2 59112 97.4957 117.4253 0012823 9.2614 350.8859 15.27005236 43974 MO-122 1 60209U 24125G 24354.31569682 .00021416 00000-0 80021-3 0 9997 2 60209 97.2970 202.6931 0024203 35.1966 325.0866 15.27098642 25581 GRBBeta 1 60237U 24128C 24354.64050292 .00007406 00000-0 60364-3 0 9990 2 60237 61.9945 317.8750 0032104 15.2741 344.9310 14.99882486 24385 Curium One 1 60242U 24128H 24354.39878132 .00012558 00000-0 99320-3 0 9997 2 60242 61.9847 318.7327 0032250 7.8726 352.2863 15.00569072 24352 ROBUSTA-3A 1 60243U 24128J 24354.35803310 .00012302 00000-0 98177-3 0 9996 2 60243 61.9917 319.2128 0030337 5.5217 354.6201 15.00285100 24348 CatSat 1 60246U 24125J 24354.38363707 .00015874 00000-0 62043-3 0 9990 2 60246 97.2771 203.4697 0047523 347.8282 12.1804 15.24874992 23696 CySat-1 1 61501U 98067WZ 24354.53810456 .00419394 00000-0 19004-2 0 9999 2 61501 51.6271 109.9347 0014256 319.7230 40.2715 15.82107719 11320 AO-123 1 61781U 24199AY 24354.76611395 .00011037 00000-0 45554-3 0 9992 2 61781 97.3785 218.8543 0019263 84.4793 275.8641 15.24033169 50676 /EX
